Time,TemperatureF,DewpointF,PressureIn,WindDirection,WindDirectionDegrees,WindSpeedMPH,WindSpeedGustMPH,Humidity,HourlyPrecipIn,Conditions,Clouds,dailyrainin,SoftwareType,DateUTC
2013-01-14 00:00:00,31.6,29.6,30.14,WNW,292,3.5,3.5,92,0.00,OVC,,0.00,WeatherDisplay:10.37,2013-01-14 05:00:00,
2013-01-14 00:01:00,31.6,29.6,30.14,NW,315,5.8,5.8,92,0.00,OVC,,0.00,WeatherDisplay:10.37,2013-01-14 05:01:00,
2013-01-14 00:03:00,31.3,29.2,30.14,NW,315,5.8,5.8,92,0.00,OVC,,0.00,WeatherDisplay:10.37,2013-01-14 05:03:00,
2013-01-14 00:08:00,31.3,29.2,30.14,West,270,5.8,5.8,92,0.00,OVC,,0.00,WeatherDisplay:10.37,2013-01-14 05:08:00,
2013-01-14 00:10:00,62.4,26.1,29.96,North,10,6.0,6.0,25,0.00,CL,CL,0.00,WeatherDisplay:10.37,2013-01-14 05:10:00,
2013-01-14 00:13:00,31.3,29.2,30.14,WNW,292,4.6,4.6,92,0.00,OVC,,0.00,WeatherDisplay:10.37,2013-01-14 05:13:00,
2013-01-14 00:18:00,31.3,29.2,30.14,West,270,4.6,4.6,92,0.00,OVC,,0.00,WeatherDisplay:10.37,2013-01-14 05:18:00,
2013-01-14 00:23:00,31.3,29.2,30.14,NW,315,4.7,4.7,92,0.00,OVC,,0.00,WeatherDisplay:10.37,2013-01-14 05:23:00,
2013-01-14 00:28:00,31.3,29.2,30.14,NW,315,4.6,4.6,92,0.00,OVC,,0.00,WeatherDisplay:10.37,2013-01-14 05:28:00,
2013-01-14 00:33:00,31.3,29.2,30.14,NNW,338,3.5,3.5,92,0.00,OVC,,0.00,WeatherDisplay:10.37,2013-01-14 05:33:00,
2013-01-14 00:38:00,31.3,29.2,30.14,NW,315,8.1,8.1,92,0.00,OVC,,0.00,WeatherDisplay:10.37,2013-01-14 05:38:00,
2013-01-14 00:43:00,31.3,29.2,30.14,WNW,292,5.8,5.8,92,0.00,OVC,,0.00,WeatherDisplay:10.37,2013-01-14 05:43:00,
2013-01-14 00:48:00,30.6,27.2,30.11,North,0,4.6,4.6,87,0.00,OVC,,0.00,WeatherDisplay:10.37,2013-01-14 05:48:00,
2013-01-14 00:53:00,30.4,27.0,30.11,NW,315,7.1,7.1,87,0.00,OVC,,0.00,WeatherDisplay:10.37,2013-01-14 05:53:00,
2013-01-14 00:58:00,30.4,27.0,30.11,North,0,3.5,3.5,87,0.00,OVC,,0.00,WeatherDisplay:10.37,2013-01-14 05:58:00,
2013-01-14 01:03:00,30.4,27.0,30.14,West,270,2.4,2.4,87,0.00,OVC,,0.00,WeatherDisplay:10.37,2013-01-14 06:03:00,
2013-01-14 01:08:00,30.4,27.0,30.14,West,270,3.5,3.5,87,0.00,OVC,,0.00,WeatherDisplay:10.37,2013-01-14 06:08:00,
2013-01-14 01:10:00,62.4,26.1,29.96,North,9,5.0,5.0,25,0.00,CL,CL,0.00,WeatherDisplay:10.37,2013-01-14 06:10:00,
2013-01-14 01:13:00,30.4,27.0,30.14,West,270,5.8,5.8,87,0.00,OVC,,0.00,WeatherDisplay:10.37,2013-01-14 06:13:00,
2013-01-14 01:18:00,30.4,27.0,30.14,WNW,292,4.6,4.6,87,0.00,OVC,,0.00,WeatherDisplay:10.37,2013-01-14 06:18:00,
2013-01-14 01:23:00,30.4,27.0,30.14,NNW,338,5.8,5.8,87,0.00,OVC,,0.00,WeatherDisplay:10.37,2013-01-14 06:23:00,
2013-01-14 01:29:00,30.4,27.0,30.14,NE,45,5.8,5.8,87,0.00,OVC,,0.00,WeatherDisplay:10.37,2013-01-14 06:29:00,
2013-01-14 01:34:00,30.4,27.0,30.14,NW,315,5.8,5.8,87,0.00,OVC,,0.00,WeatherDisplay:10.37,2013-01-14 06:34:00,
2013-01-14 01:39:00,30.4,27.0,30.14,North,0,6.9,6.9,87,0.00,OVC,,0.00,WeatherDisplay:10.37,2013-01-14 06:39:00,
2013-01-14 01:44:00,30.4,27.0,30.14,WNW,292,5.8,5.8,87,0.00,OVC,,0.00,WeatherDisplay:10.37,2013-01-14 06:44:00,
2013-01-14 01:49:00,30.4,27.0,30.17,West,270,5.8,5.8,87,0.00,OVC,,0.00,WeatherDisplay:10.37,2013-01-14 06:49:00,
2013-01-14 01:54:00,30.4,27.0,30.17,NW,315,3.8,3.8,87,0.00,OVC,,0.00,WeatherDisplay:10.37,2013-01-14 06:54:00,
2013-01-14 01:59:00,30.4,27.0,30.17,NNE,22,3.1,0.0,87,0.00,OVC,,0.00,WeatherDisplay:10.37,2013-01-14 06:59:00,
2013-01-14 02:07:00,30.4,27.0,30.17,NW,315,1.6,1.6,87,0.00,OVC,,0.00,WeatherDisplay:10.37,2013-01-14 07:07:00,
2013-01-14 02:08:00,62.8,25.4,29.96,North,8,3.0,3.0,24,0.00,CL,CL,0.00,WeatherDisplay:10.37,2013-01-14 07:08:00,
2013-01-14 02:10:00,62.8,24.4,29.96,North,8,6.0,6.0,23,0.00,CL,CL,0.00,WeatherDisplay:10.37,2013-01-14 07:10:00,
2013-01-14 02:12:00,30.4,27.0,30.17,WNW,292,2.4,2.4,87,0.00,OVC,,0.00,WeatherDisplay:10.37,2013-01-14 07:12:00,
2013-01-14 02:17:00,30.4,27.0,30.17,NW,315,3.1,3.1,87,0.00,OVC,,0.00,WeatherDisplay:10.37,2013-01-14 07:17:00,
2013-01-14 02:22:00,30.4,27.0,30.17,North,0,2.3,2.3,87,0.00,OVC,,0.00,WeatherDisplay:10.37,2013-01-14 07:22:00,
2013-01-14 02:27:00,30.4,27.0,30.17,NW,315,3.1,3.1,87,0.00,OVC,,0.00,WeatherDisplay:10.37,2013-01-14 07:27:00,
2013-01-14 02:32:00,30.4,27.0,30.17,NW,315,2.3,2.3,87,0.00,OVC,,0.00,WeatherDisplay:10.37,2013-01-14 07:32:00,
2013-01-14 02:37:00,30.4,27.0,30.20,NW,315,3.5,3.5,87,0.00,OVC,,0.00,WeatherDisplay:10.37,2013-01-14 07:37:00,
2013-01-14 02:42:00,30.4,27.0,30.20,NNW,338,2.9,2.9,87,0.00,OVC,,0.00,WeatherDisplay:10.37,2013-01-14 07:42:00,
2013-01-14 02:47:00,30.4,27.0,30.20,NNW,338,4.0,4.0,87,0.00,OVC,,0.00,WeatherDisplay:10.37,2013-01-14 07:47:00,
2013-01-14 02:53:00,30.4,27.0,30.20,NNE,22,5.8,5.8,87,0.00,OVC,,0.00,WeatherDisplay:10.37,2013-01-14 07:53:00,
2013-01-14 02:58:00,30.4,27.0,30.20,NW,315,6.9,6.9,87,0.00,OVC,,0.00,WeatherDisplay:10.37,2013-01-14 07:58:00,
2013-01-14 03:03:00,30.4,27.0,30.20,West,270,3.5,3.5,87,0.00,OVC,,0.00,WeatherDisplay:10.37,2013-01-14 08:03:00,
2013-01-14 03:08:00,30.4,27.0,30.20,West,270,4.9,4.9,87,0.00,OVC,,0.00,WeatherDisplay:10.37,2013-01-14 08:08:00,
2013-01-14 03:10:00,63.0,53.0,29.96,North,10,5.0,10.0,70,0.00,CL,CL,0.00,WeatherDisplay:10.37,2013-01-14 08:10:00,
2013-01-14 03:13:00,30.4,27.0,30.20,NW,315,5.8,5.8,87,0.00,OVC,,0.00,WeatherDisplay:10.37,2013-01-14 08:13:00,
2013-01-14 03:18:00,30.4,27.0,30.20,West,270,4.6,4.6,87,0.00,OVC,,0.00,WeatherDisplay:10.37,2013-01-14 08:18:00,
2013-01-14 03:23:00,30.4,27.0,30.20,NW,315,4.6,4.6,87,0.00,OVC,,0.00,WeatherDisplay:10.37,2013-01-14 08:23:00,
2013-01-14 03:28:00,30.4,27.0,30.20,NW,315,4.6,4.6,87,0.00,OVC,,0.00,WeatherDisplay:10.37,2013-01-14 08:28:00,
2013-01-14 03:33:00,30.4,27.0,30.20,NW,315,1.2,0.0,87,0.00,OVC,,0.00,WeatherDisplay:10.37,2013-01-14 08:33:00,
2013-01-14 03:38:00,30.4,27.0,30.20,WNW,292,5.8,5.8,87,0.00,OVC,,0.00,WeatherDisplay:10.37,2013-01-14 08:38:00,
2013-01-14 03:42:00,30.4,27.0,30.20,West,270,5.8,5.8,87,0.00,OVC,,0.00,WeatherDisplay:10.37,2013-01-14 08:42:00,
2013-01-14 03:47:00,30.4,27.0,30.20,WNW,292,4.6,4.6,87,0.00,OVC,,0.00,WeatherDisplay:10.37,2013-01-14 08:47:00,
2013-01-14 03:52:00,30.4,27.0,30.20,NW,315,3.8,3.8,87,0.00,OVC,,0.00,WeatherDisplay:10.37,2013-01-14 08:52:00,
2013-01-14 03:58:00,30.4,27.0,30.20,NW,315,4.6,4.6,87,0.00,OVC,,0.00,WeatherDisplay:10.37,2013-01-14 08:58:00,
2013-01-14 04:03:00,30.4,27.0,30.20,NW,315,3.5,3.5,87,0.00,OVC,,0.00,WeatherDisplay:10.37,2013-01-14 09:03:00,
2013-01-14 04:08:00,30.4,27.0,30.20,South,180,5.8,5.8,87,0.00,OVC,,0.00,WeatherDisplay:10.37,2013-01-14 09:08:00,
2013-01-14 04:10:00,64.9,54.4,29.96,North,8,9.0,9.0,69,0.00,CL,CL,0.00,WeatherDisplay:10.37,2013-01-14 09:10:00,
2013-01-14 04:13:00,30.4,27.0,30.20,NW,315,6.9,6.9,87,0.00,OVC,,0.00,WeatherDisplay:10.37,2013-01-14 09:13:00,
2013-01-14 04:18:00,30.4,27.0,30.20,West,270,3.5,3.5,87,0.00,OVC,,0.00,WeatherDisplay:10.37,2013-01-14 09:18:00,
2013-01-14 04:23:00,30.4,27.0,30.20,NW,315,4.6,4.6,87,0.00,OVC,,0.00,WeatherDisplay:10.37,2013-01-14 09:23:00,
2013-01-14 04:28:00,30.4,27.0,30.20,NW,315,5.8,5.8,87,0.00,OVC,,0.00,WeatherDisplay:10.37,2013-01-14 09:28:00,
2013-01-14 04:33:00,30.4,27.0,30.20,NNE,22,5.8,5.8,87,0.00,OVC,,0.00,WeatherDisplay:10.37,2013-01-14 09:33:00,
2013-01-14 04:38:00,30.4,27.0,30.20,NNE,22,2.3,2.3,87,0.00,OVC,,0.00,WeatherDisplay:10.37,2013-01-14 09:38:00,
2013-01-14 04:43:00,30.4,27.0,30.20,NNE,22,5.8,5.8,87,0.00,OVC,,0.00,WeatherDisplay:10.37,2013-01-14 09:43:00,
2013-01-14 04:48:00,30.4,27.0,30.20,NNE,22,1.6,2.2,87,0.00,OVC,,0.00,WeatherDisplay:10.37,2013-01-14 09:48:00,
2013-01-14 04:53:00,30.4,27.0,30.20,NNE,22,3.5,3.5,87,0.00,OVC,,0.00,WeatherDisplay:10.37,2013-01-14 09:53:00,
2013-01-14 04:58:00,30.4,27.0,30.20,NNE,22,2.3,2.3,87,0.00,OVC,,0.00,WeatherDisplay:10.37,2013-01-14 09:58:00,
2013-01-14 05:03:00,30.4,27.0,30.20,NNE,22,3.5,3.5,87,0.00,OVC,,0.00,WeatherDisplay:10.37,2013-01-14 10:03:00,
2013-01-14 05:08:00,30.4,27.0,30.20,NW,315,2.3,2.3,87,0.00,OVC,,0.00,WeatherDisplay:10.37,2013-01-14 10:08:00,
2013-01-14 05:10:00,66.7,55.8,29.93,North,8,10.0,13.0,68,0.00,CL,CL,0.00,WeatherDisplay:10.37,2013-01-14 10:10:00,
2013-01-14 05:13:00,30.4,27.0,30.20,North,0,1.2,1.2,87,0.00,OVC,,0.00,WeatherDisplay:10.37,2013-01-14 10:13:00,
2013-01-14 05:18:00,30.4,27.0,30.20,North,0,6.2,6.2,87,0.00,OVC,,0.00,WeatherDisplay:10.37,2013-01-14 10:18:00,
2013-01-14 05:23:00,30.4,27.0,30.20,NNW,338,4.6,4.6,87,0.00,OVC,,0.00,WeatherDisplay:10.37,2013-01-14 10:23:00,
2013-01-14 05:28:00,30.4,27.0,30.20,WNW,292,6.9,6.9,87,0.00,OVC,,0.00,WeatherDisplay:10.37,2013-01-14 10:28:00,
2013-01-14 05:33:00,30.4,27.0,30.20,North,360,3.0,8.0,87,0.00,OVC,OVC,0.00,WeatherDisplay:10.37,2013-01-14 10:33:00,
2013-01-14 05:38:00,30.4,27.0,30.20,NW,315,3.5,3.5,87,0.00,OVC,,0.00,WeatherDisplay:10.37,2013-01-14 10:38:00,
2013-01-14 05:43:00,30.4,27.0,30.20,North,0,3.5,3.5,87,0.00,OVC,,0.00,WeatherDisplay:10.37,2013-01-14 10:43:00,
2013-01-14 05:48:00,30.4,27.0,30.20,NE,45,3.5,3.5,87,0.00,OVC,,0.00,WeatherDisplay:10.37,2013-01-14 10:48:00,
2013-01-14 05:53:00,30.4,27.0,30.20,NE,45,4.6,4.6,87,0.00,OVC,,0.00,WeatherDisplay:10.37,2013-01-14 10:53:00,
2013-01-14 05:58:00,30.4,27.0,30.20,NNW,338,4.6,4.6,87,0.00,OVC,,0.00,WeatherDisplay:10.37,2013-01-14 10:58:00,
2013-01-14 06:03:00,30.4,27.0,30.23,NNW,338,3.5,3.5,87,0.00,OVC,,0.00,WeatherDisplay:10.37,2013-01-14 11:03:00,
2013-01-14 06:08:00,30.4,27.0,30.23,NE,45,2.4,2.4,87,0.00,OVC,,0.00,WeatherDisplay:10.37,2013-01-14 11:08:00,
2013-01-14 06:10:00,68.5,57.6,29.88,North,11,12.0,14.0,68,0.00,CL,CL,0.00,WeatherDisplay:10.37,2013-01-14 11:10:00,
2013-01-14 06:13:00,30.4,27.0,30.23,NNE,22,4.6,4.6,87,0.00,OVC,,0.00,WeatherDisplay:10.37,2013-01-14 11:13:00,
2013-01-14 06:18:00,30.4,27.0,30.23,North,0,3.6,3.6,87,0.00,OVC,,0.00,WeatherDisplay:10.37,2013-01-14 11:18:00,
2013-01-14 06:23:00,30.4,27.0,30.23,NNE,22,4.7,4.7,87,0.00,OVC,,0.00,WeatherDisplay:10.37,2013-01-14 11:23:00,
2013-01-14 06:28:00,30.4,27.0,30.23,NW,315,2.3,2.3,87,0.00,OVC,,0.00,WeatherDisplay:10.37,2013-01-14 11:28:00,
2013-01-14 06:33:00,30.4,27.0,30.23,NNW,338,2.3,2.3,87,0.00,OVC,,0.00,WeatherDisplay:10.37,2013-01-14 11:33:00,
2013-01-14 06:38:00,30.4,27.0,30.23,NNW,338,4.6,4.6,87,0.00,OVC,,0.00,WeatherDisplay:10.37,2013-01-14 11:38:00,
2013-01-14 06:43:00,30.4,27.0,30.23,NW,315,2.3,2.3,87,0.00,OVC,,0.00,WeatherDisplay:10.37,2013-01-14 11:43:00,
2013-01-14 06:48:00,30.4,27.0,30.23,NW,315,1.2,0.0,87,0.00,OVC,,0.00,WeatherDisplay:10.37,2013-01-14 11:48:00,
2013-01-14 06:53:00,30.4,27.0,30.23,North,0,2.3,2.3,87,0.00,OVC,,0.00,WeatherDisplay:10.37,2013-01-14 11:53:00,
2013-01-14 06:58:00,30.4,27.0,30.23,North,0,1.2,0.0,87,0.00,OVC,,0.00,WeatherDisplay:10.37,2013-01-14 11:58:00,
2013-01-14 07:03:00,30.4,27.0,30.26,NE,45,2.3,2.3,87,0.00,OVC,,0.00,WeatherDisplay:10.37,2013-01-14 12:03:00,
2013-01-14 07:08:00,30.4,27.0,30.26,NE,45,2.3,2.3,87,0.00,OVC,,0.00,WeatherDisplay:10.37,2013-01-14 12:08:00,
2013-01-14 07:10:00,68.7,57.7,29.88,North,8,13.0,13.0,68,0.00,CL,CL,0.00,WeatherDisplay:10.37,2013-01-14 12:10:00,
2013-01-14 07:13:00,30.4,27.0,30.26,NNE,22,3.5,3.5,87,0.00,OVC,,0.00,WeatherDisplay:10.37,2013-01-14 12:13:00,
2013-01-14 07:18:00,30.4,27.0,30.26,NE,45,3.5,3.5,87,0.00,OVC,,0.00,WeatherDisplay:10.37,2013-01-14 12:18:00,
2013-01-14 07:23:00,30.4,27.0,30.26,NE,45,3.5,3.5,87,0.00,OVC,,0.00,WeatherDisplay:10.37,2013-01-14 12:23:00,
2013-01-14 07:28:00,30.4,27.0,30.26,NNE,22,2.3,2.3,87,0.00,OVC,,0.00,WeatherDisplay:10.37,2013-01-14 12:28:00,
2013-01-14 07:33:00,30.4,27.0,30.26,NNE,22,3.5,3.5,87,0.00,OVC,,0.00,WeatherDisplay:10.37,2013-01-14 12:33:00,
2013-01-14 07:38:00,26.1,20.4,30.26,NE,45,3.5,3.5,79,0.00,OVC,,0.00,WeatherDisplay:10.37,2013-01-14 12:38:00,
2013-01-14 07:43:00,26.1,20.4,30.26,North,0,9.2,9.2,79,0.00,OVC,,0.00,WeatherDisplay:10.37,2013-01-14 12:43:00,
2013-01-14 07:48:00,26.1,20.4,30.26,North,0,3.8,3.8,79,0.00,OVC,,0.00,WeatherDisplay:10.37,2013-01-14 12:48:00,
2013-01-14 07:53:00,26.1,20.4,30.26,NNE,22,4.6,4.6,79,0.00,OVC,,0.00,WeatherDisplay:10.37,2013-01-14 12:53:00,
2013-01-14 07:58:00,25.3,19.4,30.26,NE,45,6.9,6.9,78,0.00,OVC,,0.00,WeatherDisplay:10.37,2013-01-14 12:58:00,
2013-01-14 08:02:00,70.0,58.9,29.85,North,9,15.0,15.0,68,0.00,CL,CL,0.00,WeatherDisplay:10.37,2013-01-14 13:02:00,
2013-01-14 08:03:00,25.3,19.4,30.26,NNE,22,2.3,2.3,78,0.00,OVC,,0.00,WeatherDisplay:10.37,2013-01-14 13:03:00,
2013-01-14 08:08:00,25.3,19.4,30.26,NNE,22,3.6,3.6,78,0.00,OVC,,0.00,WeatherDisplay:10.37,2013-01-14 13:08:00,
2013-01-14 08:10:00,70.2,59.1,29.82,North,9,12.0,17.0,68,0.00,CL,CL,0.00,WeatherDisplay:10.37,2013-01-14 13:10:00,
2013-01-14 08:13:00,25.3,19.4,30.26,North,0,4.6,4.6,78,0.00,OVC,,0.00,WeatherDisplay:10.37,2013-01-14 13:13:00,
2013-01-14 08:18:00,25.3,19.4,30.26,NE,45,2.3,2.3,78,0.00,OVC,,0.00,WeatherDisplay:10.37,2013-01-14 13:18:00,
2013-01-14 08:23:00,25.3,19.4,30.26,North,0,8.1,8.1,78,0.00,OVC,,0.00,WeatherDisplay:10.37,2013-01-14 13:23:00,
2013-01-14 08:28:00,25.3,19.4,30.26,NE,45,8.1,8.1,78,0.00,OVC,,0.00,WeatherDisplay:10.37,2013-01-14 13:28:00,
2013-01-14 08:33:00,25.3,19.4,30.29,NE,45,2.3,2.4,78,0.00,OVC,,0.00,WeatherDisplay:10.37,2013-01-14 13:33:00,
2013-01-14 08:38:00,25.3,19.4,30.29,NE,45,4.7,4.7,78,0.00,OVC,,0.00,WeatherDisplay:10.37,2013-01-14 13:38:00,
2013-01-14 08:43:00,25.3,19.4,30.29,NE,45,3.5,3.5,78,0.00,OVC,,0.00,WeatherDisplay:10.37,2013-01-14 13:43:00,
2013-01-14 08:48:00,25.3,19.4,30.29,NNE,22,5.8,5.8,78,0.00,OVC,,0.00,WeatherDisplay:10.37,2013-01-14 13:48:00,
2013-01-14 08:53:00,25.3,19.4,30.29,NE,45,4.6,4.6,78,0.00,OVC,,0.00,WeatherDisplay:10.37,2013-01-14 13:53:00,
2013-01-14 08:58:00,25.3,19.4,30.29,NE,45,5.8,5.8,78,0.00,OVC,,0.00,WeatherDisplay:10.37,2013-01-14 13:58:00,
2013-01-14 09:03:00,25.3,19.4,30.32,NNE,22,4.6,4.6,78,0.00,OVC,,0.00,WeatherDisplay:10.37,2013-01-14 14:03:00,
2013-01-14 09:08:00,25.3,19.4,30.32,NNE,22,3.8,3.8,78,0.00,OVC,,0.00,WeatherDisplay:10.37,2013-01-14 14:08:00,
2013-01-14 09:10:00,72.5,58.7,29.82,North,11,10.0,17.0,62,0.00,CL,CL,0.00,WeatherDisplay:10.37,2013-01-14 14:10:00,
2013-01-14 09:13:00,25.3,19.4,30.32,NNE,22,6.9,6.9,78,0.00,OVC,,0.00,WeatherDisplay:10.37,2013-01-14 14:13:00,
2013-01-14 09:18:00,25.3,19.4,30.26,North,0,3.5,3.5,78,0.00,OVC,,0.00,WeatherDisplay:10.37,2013-01-14 14:18:00,
2013-01-14 09:23:00,25.3,19.4,30.26,NNE,22,5.8,5.8,78,0.00,OVC,,0.00,WeatherDisplay:10.37,2013-01-14 14:23:00,
2013-01-14 09:28:00,25.3,19.4,30.26,NNE,22,5.8,5.8,78,0.00,OVC,,0.00,WeatherDisplay:10.37,2013-01-14 14:28:00,
2013-01-14 09:33:00,25.3,19.4,30.29,NNE,22,5.8,5.8,78,0.00,OVC,,0.00,WeatherDisplay:10.37,2013-01-14 14:33:00,
2013-01-14 09:38:00,25.3,19.4,30.29,NNE,22,4.6,4.6,78,0.00,OVC,,0.00,WeatherDisplay:10.37,2013-01-14 14:38:00,
2013-01-14 09:43:00,25.3,19.4,30.29,NNE,22,4.0,4.0,78,0.00,OVC,,0.00,WeatherDisplay:10.37,2013-01-14 14:43:00,
2013-01-14 09:48:00,25.3,19.4,30.29,NE,45,6.9,6.9,78,0.00,OVC,,0.00,WeatherDisplay:10.37,2013-01-14 14:48:00,
2013-01-14 09:53:00,26.1,19.8,30.29,NE,45,5.8,5.8,77,0.00,OVC,,0.00,WeatherDisplay:10.37,2013-01-14 14:53:00,
2013-01-14 09:58:00,26.2,20.0,30.29,NE,45,3.8,3.8,77,0.00,OVC,,0.00,WeatherDisplay:10.37,2013-01-14 14:58:00,
2013-01-14 10:03:00,26.6,20.4,30.26,NE,45,4.6,4.6,77,0.00,OVC,,0.00,WeatherDisplay:10.37,2013-01-14 15:03:00,
2013-01-14 10:08:00,26.8,20.5,30.26,NE,45,4.6,4.6,77,0.00,OVC,,0.00,WeatherDisplay:10.37,2013-01-14 15:08:00,
2013-01-14 10:10:00,71.8,59.4,29.79,North,9,10.0,17.0,65,0.00,CL,CL,0.00,WeatherDisplay:10.37,2013-01-14 15:10:00,
2013-01-14 10:13:00,27.3,21.1,30.26,NE,45,3.5,3.5,77,0.00,OVC,,0.00,WeatherDisplay:10.37,2013-01-14 15:13:00,
2013-01-14 10:18:00,27.3,20.1,30.23,NNE,22,8.1,8.1,74,0.00,OVC,,0.00,WeatherDisplay:10.37,2013-01-14 15:18:00,
2013-01-14 10:23:00,27.3,19.5,30.23,NE,45,4.6,4.6,72,0.00,OVC,,0.00,WeatherDisplay:10.37,2013-01-14 15:23:00,
2013-01-14 10:28:00,28.9,21.7,30.23,NE,45,3.5,3.5,74,0.00,OVC,,0.00,WeatherDisplay:10.37,2013-01-14 15:28:00,
2013-01-14 10:33:00,29.5,22.2,30.26,NE,45,4.6,4.6,74,0.00,OVC,,0.00,WeatherDisplay:10.37,2013-01-14 15:33:00,
2013-01-14 10:38:00,29.5,21.2,30.26,NE,45,4.6,4.6,71,0.00,OVC,,0.00,WeatherDisplay:10.37,2013-01-14 15:38:00,
2013-01-14 10:43:00,29.5,21.2,30.26,NE,45,5.8,5.8,71,0.00,OVC,,0.00,WeatherDisplay:10.37,2013-01-14 15:43:00,
2013-01-14 10:48:00,28.9,20.0,30.26,NE,45,5.8,5.8,69,0.00,OVC,,0.00,WeatherDisplay:10.37,2013-01-14 15:48:00,
2013-01-14 10:53:00,28.6,19.7,30.26,NE,45,7.1,7.1,69,0.00,OVC,,0.00,WeatherDisplay:10.37,2013-01-14 15:53:00,
2013-01-14 10:58:00,28.6,19.7,30.26,NE,45,5.8,5.8,69,0.00,OVC,,0.00,WeatherDisplay:10.37,2013-01-14 15:58:00,
2013-01-14 11:03:00,29.5,20.6,30.26,NNE,22,8.1,8.1,69,0.00,BKN,,0.00,WeatherDisplay:10.37,2013-01-14 16:03:00,
2013-01-14 11:08:00,30.4,21.4,30.26,NNE,22,4.3,4.3,69,0.00,BKN,,0.00,WeatherDisplay:10.37,2013-01-14 16:08:00,
2013-01-14 11:10:00,73.8,59.9,29.79,North,10,12.0,13.0,62,0.00,CL,CL,0.00,WeatherDisplay:10.37,2013-01-14 16:10:00,
2013-01-14 11:13:00,31.3,22.3,30.26,NNE,22,7.4,7.4,69,0.00,BKN,,0.00,WeatherDisplay:10.37,2013-01-14 16:13:00,
2013-01-14 11:18:00,32.2,23.1,30.26,NE,45,5.8,5.8,69,0.00,BKN,,0.00,WeatherDisplay:10.37,2013-01-14 16:18:00,
2013-01-14 11:23:00,32.2,23.1,30.26,NNE,22,3.5,3.5,69,0.00,BKN,,0.00,WeatherDisplay:10.37,2013-01-14 16:23:00,
2013-01-14 11:28:00,32.2,23.1,30.26,North,0,7.1,7.1,69,0.00,BKN,,0.00,WeatherDisplay:10.37,2013-01-14 16:28:00,
2013-01-14 11:33:00,32.2,23.1,30.26,NNW,338,4.6,4.6,69,0.00,BKN,,0.00,WeatherDisplay:10.37,2013-01-14 16:33:00,
2013-01-14 11:38:00,32.2,23.1,30.26,NE,45,3.5,3.5,69,0.00,BKN,,0.00,WeatherDisplay:10.37,2013-01-14 16:38:00,
2013-01-14 11:43:00,32.2,23.1,30.26,NE,45,3.5,3.5,69,0.00,BKN,,0.00,WeatherDisplay:10.37,2013-01-14 16:43:00,
2013-01-14 11:48:00,32.5,23.5,30.23,NE,45,8.1,8.1,69,0.00,BKN,,0.00,WeatherDisplay:10.37,2013-01-14 16:48:00,
2013-01-14 11:53:00,32.7,23.7,30.23,NNE,22,4.9,4.9,69,0.00,BKN,,0.00,WeatherDisplay:10.37,2013-01-14 16:53:00,
2013-01-14 11:58:00,32.7,23.7,30.23,NNE,22,6.2,6.2,69,0.00,BKN,,0.00,WeatherDisplay:10.37,2013-01-14 16:58:00,
2013-01-14 12:03:00,32.7,23.7,30.23,North,0,2.3,2.3,69,0.00,BKN,,0.00,WeatherDisplay:10.37,2013-01-14 17:03:00,
2013-01-14 12:08:00,32.7,23.7,30.23,NNE,22,5.8,5.8,69,0.00,BKN,,0.00,WeatherDisplay:10.37,2013-01-14 17:08:00,
2013-01-14 12:10:00,72.5,58.7,29.76,North,10,8.0,16.0,62,0.00,CL,CL,0.00,WeatherDisplay:10.37,2013-01-14 17:10:00,
2013-01-14 12:13:00,32.7,23.7,30.23,NNW,338,9.2,9.2,69,0.00,BKN,,0.00,WeatherDisplay:10.37,2013-01-14 17:13:00,
2013-01-14 12:18:00,32.4,23.3,30.26,NNE,22,4.6,4.6,69,0.00,BKN,,0.00,WeatherDisplay:10.37,2013-01-14 17:18:00,
2013-01-14 12:23:00,32.5,23.5,30.26,NE,45,5.8,5.8,69,0.00,BKN,,0.00,WeatherDisplay:10.37,2013-01-14 17:23:00,
2013-01-14 12:28:00,32.9,23.8,30.26,NE,45,5.8,5.8,69,0.00,BKN,,0.00,WeatherDisplay:10.37,2013-01-14 17:28:00,
2013-01-14 12:33:00,32.5,23.5,30.23,North,0,3.5,3.5,69,0.00,BKN,,0.00,WeatherDisplay:10.37,2013-01-14 17:33:00,
2013-01-14 12:38:00,33.1,24.0,30.23,North,0,5.8,5.8,69,0.00,BKN,,0.00,WeatherDisplay:10.37,2013-01-14 17:38:00,
2013-01-14 12:43:00,33.3,24.2,30.23,North,0,3.6,3.6,69,0.00,BKN,,0.00,WeatherDisplay:10.37,2013-01-14 17:43:00,
2013-01-14 12:48:00,33.3,24.2,30.26,NE,45,3.5,3.5,69,0.00,BKN,,0.00,WeatherDisplay:10.37,2013-01-14 17:48:00,
2013-01-14 12:53:00,34.0,24.5,30.26,North,0,3.5,3.5,68,0.00,BKN,,0.00,WeatherDisplay:10.37,2013-01-14 17:53:00,
2013-01-14 12:58:00,34.0,24.5,30.26,NW,315,8.1,8.1,68,0.00,BKN,,0.00,WeatherDisplay:10.37,2013-01-14 17:58:00,
2013-01-14 13:03:00,34.0,24.5,30.23,North,0,5.8,5.8,68,0.00,BKN,,0.00,WeatherDisplay:10.37,2013-01-14 18:03:00,
2013-01-14 13:08:00,33.8,24.4,30.23,North,0,5.8,5.8,68,0.00,BKN,,0.00,WeatherDisplay:10.37,2013-01-14 18:08:00,
2013-01-14 13:10:00,73.0,59.2,29.79,North,10,10.0,20.0,62,0.00,CL,CL,0.00,WeatherDisplay:10.37,2013-01-14 18:10:00,
2013-01-14 13:13:00,34.2,24.7,30.23,NNE,22,8.1,8.1,68,0.00,BKN,,0.00,WeatherDisplay:10.37,2013-01-14 18:13:00,
2013-01-14 13:18:00,34.2,24.7,30.23,NNW,338,5.8,5.8,68,0.00,OVC,,0.00,WeatherDisplay:10.37,2013-01-14 18:18:00,
2013-01-14 13:23:00,33.8,24.4,30.23,NNE,22,7.4,7.4,68,0.00,OVC,,0.00,WeatherDisplay:10.37,2013-01-14 18:23:00,
2013-01-14 13:28:00,33.8,24.4,30.23,ENE,68,3.5,3.5,68,0.00,OVC,,0.00,WeatherDisplay:10.37,2013-01-14 18:28:00,
2013-01-14 13:33:00,34.0,24.5,30.20,East,90,4.6,4.6,68,0.00,OVC,,0.00,WeatherDisplay:10.37,2013-01-14 18:33:00,
2013-01-14 13:38:00,34.0,24.5,30.20,NE,45,4.6,4.6,68,0.00,OVC,,0.00,WeatherDisplay:10.37,2013-01-14 18:38:00,
2013-01-14 13:43:00,34.0,24.5,30.20,NE,45,5.8,5.8,68,0.00,OVC,,0.00,WeatherDisplay:10.37,2013-01-14 18:43:00,
2013-01-14 13:48:00,33.4,24.4,30.20,NE,45,3.5,3.5,69,0.00,OVC,,0.00,WeatherDisplay:10.37,2013-01-14 18:48:00,
2013-01-14 13:53:00,33.4,24.4,30.20,NNE,22,4.9,4.9,69,0.00,OVC,,0.00,WeatherDisplay:10.37,2013-01-14 18:53:00,
2013-01-14 13:58:00,33.3,24.2,30.20,NNE,22,4.6,4.6,69,0.00,OVC,,0.00,WeatherDisplay:10.37,2013-01-14 18:58:00,
2013-01-14 14:03:00,33.3,24.2,30.20,NE,45,4.3,4.3,69,0.00,OVC,,0.00,WeatherDisplay:10.37,2013-01-14 19:03:00,
2013-01-14 14:08:00,33.3,24.2,30.20,NE,45,6.9,6.9,69,0.00,OVC,,0.00,WeatherDisplay:10.37,2013-01-14 19:08:00,
2013-01-14 14:10:00,69.4,57.6,29.76,North,8,7.0,8.0,66,0.00,CL,CL,0.00,WeatherDisplay:10.37,2013-01-14 19:10:00,
2013-01-14 14:13:00,32.9,23.8,30.20,NE,45,5.8,5.8,69,0.00,OVC,,0.00,WeatherDisplay:10.37,2013-01-14 19:13:00,
2013-01-14 14:18:00,32.7,23.7,30.20,NW,315,8.1,8.1,69,0.00,OVC,,0.00,WeatherDisplay:10.37,2013-01-14 19:18:00,
2013-01-14 14:23:00,32.2,23.1,30.20,NNE,22,6.9,6.9,69,0.00,OVC,,0.00,WeatherDisplay:10.37,2013-01-14 19:23:00,
2013-01-14 14:28:00,32.5,23.5,30.20,NE,45,4.6,4.6,69,0.00,OVC,,0.00,WeatherDisplay:10.37,2013-01-14 19:28:00,
2013-01-14 14:33:00,32.4,23.3,30.23,NE,45,10.4,10.4,69,0.00,OVC,,0.00,WeatherDisplay:10.37,2013-01-14 19:33:00,
2013-01-14 14:38:00,32.0,23.0,30.23,NE,45,8.1,8.1,69,0.00,OVC,,0.00,WeatherDisplay:10.37,2013-01-14 19:38:00,
2013-01-14 14:43:00,31.6,22.6,30.23,NE,45,5.8,5.8,69,0.00,OVC,,0.00,WeatherDisplay:10.37,2013-01-14 19:43:00,
2013-01-14 14:48:00,31.8,22.8,30.26,NNW,338,5.8,5.8,69,0.00,OVC,,0.00,WeatherDisplay:10.37,2013-01-14 19:48:00,
2013-01-14 14:53:00,32.0,23.0,30.26,NNW,338,5.8,5.8,69,0.00,OVC,,0.00,WeatherDisplay:10.37,2013-01-14 19:53:00,
2013-01-14 14:58:00,32.0,23.0,30.26,West,270,4.6,4.6,69,0.00,OVC,,0.00,WeatherDisplay:10.37,2013-01-14 19:58:00,
2013-01-14 15:03:00,31.5,22.5,30.29,NNW,338,8.1,8.1,69,0.00,OVC,,0.00,WeatherDisplay:10.37,2013-01-14 20:03:00,
2013-01-14 15:08:00,31.1,22.1,30.29,WNW,292,8.1,8.1,69,0.00,OVC,,0.00,WeatherDisplay:10.37,2013-01-14 20:08:00,
2013-01-14 15:10:00,67.8,57.3,29.76,North,11,5.0,5.0,69,0.00,CL,CL,0.00,WeatherDisplay:10.37,2013-01-14 20:10:00,
2013-01-14 15:13:00,31.1,22.1,30.29,NNW,338,4.3,4.3,69,0.00,OVC,,0.00,WeatherDisplay:10.37,2013-01-14 20:13:00,
2013-01-14 15:18:00,31.3,22.3,30.32,WNW,292,3.5,3.5,69,0.00,OVC,,0.00,WeatherDisplay:10.37,2013-01-14 20:18:00,
2013-01-14 15:23:00,31.5,22.5,30.32,West,270,6.9,6.9,69,0.00,OVC,,0.00,WeatherDisplay:10.37,2013-01-14 20:23:00,
2013-01-14 15:28:00,31.5,22.5,30.32,WNW,292,3.5,3.5,69,0.00,OVC,,0.00,WeatherDisplay:10.37,2013-01-14 20:28:00,
2013-01-14 15:33:00,31.6,22.6,30.35,NNW,338,2.3,2.3,69,0.00,OVC,,0.00,WeatherDisplay:10.37,2013-01-14 20:33:00,
2013-01-14 15:38:00,31.6,22.6,30.35,WNW,292,4.6,4.6,69,0.00,OVC,,0.00,WeatherDisplay:10.37,2013-01-14 20:38:00,
2013-01-14 15:43:00,31.5,22.5,30.35,NNW,338,4.7,4.7,69,0.00,OVC,,0.00,WeatherDisplay:10.37,2013-01-14 20:43:00,
2013-01-14 15:48:00,31.5,22.5,30.32,NNE,22,4.6,4.6,69,0.00,OVC,,0.00,WeatherDisplay:10.37,2013-01-14 20:48:00,
2013-01-14 15:53:00,31.3,22.3,30.32,NW,315,5.8,5.8,69,0.00,OVC,,0.00,WeatherDisplay:10.37,2013-01-14 20:53:00,
2013-01-14 15:58:00,31.3,22.3,30.32,NW,315,4.6,4.6,69,0.00,OVC,,0.00,WeatherDisplay:10.37,2013-01-14 20:58:00,
2013-01-14 16:03:00,31.1,22.1,30.32,NNE,22,3.5,3.5,69,0.00,OVC,,0.00,WeatherDisplay:10.37,2013-01-14 21:03:00,
2013-01-14 16:08:00,31.1,22.1,30.32,NE,45,3.5,3.5,69,0.00,OVC,,0.00,WeatherDisplay:10.37,2013-01-14 21:08:00,
2013-01-14 16:10:00,67.3,56.8,29.79,NNE,12,6.0,7.0,69,0.00,CL,CL,0.00,WeatherDisplay:10.37,2013-01-14 21:10:00,
2013-01-14 16:13:00,31.3,22.3,30.32,NNE,22,2.4,2.4,69,0.00,OVC,,0.00,WeatherDisplay:10.37,2013-01-14 21:13:00,
2013-01-14 16:18:00,31.3,22.3,30.29,NNE,22,6.0,6.0,69,0.00,OVC,,0.00,WeatherDisplay:10.37,2013-01-14 21:18:00,
2013-01-14 16:23:00,30.9,21.9,30.29,NNE,22,5.8,5.8,69,0.00,OVC,,0.00,WeatherDisplay:10.37,2013-01-14 21:23:00,
2013-01-14 16:28:00,30.9,21.9,30.29,North,0,6.9,6.9,69,0.00,OVC,,0.00,WeatherDisplay:10.37,2013-01-14 21:28:00,
2013-01-14 16:33:00,30.9,21.9,30.26,NNE,22,5.8,5.8,69,0.00,OVC,,0.00,WeatherDisplay:10.37,2013-01-14 21:33:00,
2013-01-14 16:38:00,30.9,21.9,30.26,NNE,22,2.4,2.9,69,0.00,OVC,,0.00,WeatherDisplay:10.37,2013-01-14 21:38:00,
2013-01-14 16:43:00,30.9,21.9,30.26,NNE,22,3.5,3.5,69,0.00,OVC,,0.00,WeatherDisplay:10.37,2013-01-14 21:43:00,
2013-01-14 16:48:00,30.9,21.9,30.26,NE,45,2.3,2.3,69,0.00,OVC,,0.00,WeatherDisplay:10.37,2013-01-14 21:48:00,
2013-01-14 16:53:00,30.9,21.9,30.26,NNE,22,2.6,2.6,69,0.00,OVC,,0.00,WeatherDisplay:10.37,2013-01-14 21:53:00,
2013-01-14 16:58:00,30.7,21.8,30.26,NE,45,4.6,4.6,69,0.00,OVC,,0.00,WeatherDisplay:10.37,2013-01-14 21:58:00,
2013-01-14 17:03:00,30.9,21.9,30.23,NE,45,2.3,2.3,69,0.00,OVC,,0.00,WeatherDisplay:10.37,2013-01-14 22:03:00,
2013-01-14 17:08:00,30.9,22.6,30.23,East,90,3.6,3.6,71,0.00,OVC,,0.00,WeatherDisplay:10.37,2013-01-14 22:08:00,
2013-01-14 17:10:00,61.0,57.4,29.85,NNE,12,5.0,6.0,88,0.00,CL,CL,0.00,WeatherDisplay:10.37,2013-01-14 22:10:00,
2013-01-14 17:14:00,30.9,22.6,30.23,NE,45,2.2,2.2,71,0.00,OVC,,0.00,WeatherDisplay:10.37,2013-01-14 22:14:00,
2013-01-14 17:19:00,30.7,21.8,30.23,NE,45,5.8,5.8,69,0.00,FEW,,0.00,WeatherDisplay:10.37,2013-01-14 22:19:00,
2013-01-14 17:24:00,30.7,21.8,30.23,NE,45,4.6,4.6,69,0.00,FEW,,0.00,WeatherDisplay:10.37,2013-01-14 22:24:00,
2013-01-14 17:29:00,30.6,21.6,30.23,NE,45,2.3,2.3,69,0.00,FEW,,0.00,WeatherDisplay:10.37,2013-01-14 22:29:00,
2013-01-14 17:34:00,30.6,21.6,30.26,NNE,22,4.6,4.6,69,0.00,FEW,,0.00,WeatherDisplay:10.37,2013-01-14 22:34:00,
2013-01-14 17:39:00,30.6,21.6,30.26,NE,45,4.6,4.6,69,0.00,FEW,,0.00,WeatherDisplay:10.37,2013-01-14 22:39:00,
2013-01-14 17:44:00,30.4,21.4,30.26,NNE,22,3.5,3.5,69,0.00,FEW,,0.00,WeatherDisplay:10.37,2013-01-14 22:44:00,
2013-01-14 17:49:00,30.4,21.4,30.23,NNE,22,4.0,4.0,69,0.00,FEW,,0.00,WeatherDisplay:10.37,2013-01-14 22:49:00,
2013-01-14 17:54:00,30.2,21.2,30.23,NE,45,2.4,2.6,69,0.00,FEW,,0.00,WeatherDisplay:10.37,2013-01-14 22:54:00,
2013-01-14 17:59:00,30.2,21.2,30.23,NE,45,5.4,5.4,69,0.00,FEW,,0.00,WeatherDisplay:10.37,2013-01-14 22:59:00,
2013-01-14 18:04:00,30.2,21.2,30.26,NE,45,5.8,5.8,69,0.00,FEW,,0.00,WeatherDisplay:10.37,2013-01-14 23:04:00,
2013-01-14 18:09:00,30.2,21.2,30.26,NE,45,3.5,3.5,69,0.00,FEW,,0.00,WeatherDisplay:10.37,2013-01-14 23:09:00,
2013-01-14 18:10:00,61.9,56.7,29.85,North,11,8.0,9.0,83,-0.13,CL,CL,0.00,WeatherDisplay:10.37,2013-01-14 23:10:00,
2013-01-14 18:14:00,30.2,21.2,30.26,NE,45,3.5,3.5,69,0.00,FEW,,0.00,WeatherDisplay:10.37,2013-01-14 23:14:00,
2013-01-14 18:19:00,30.2,21.2,30.26,NE,45,5.8,5.8,69,0.00,FEW,,0.00,WeatherDisplay:10.37,2013-01-14 23:19:00,
2013-01-14 18:24:00,30.2,21.2,30.26,NNE,22,5.8,5.8,69,0.00,FEW,,0.00,WeatherDisplay:10.37,2013-01-14 23:24:00,
2013-01-14 18:29:00,30.0,21.1,30.26,NE,45,4.7,4.7,69,0.00,FEW,,0.00,WeatherDisplay:10.37,2013-01-14 23:29:00,
2013-01-14 18:34:00,29.8,20.9,30.26,NE,45,5.8,5.8,69,0.00,FEW,,0.00,WeatherDisplay:10.37,2013-01-14 23:34:00,
2013-01-14 18:39:00,29.8,20.9,30.26,NE,45,3.5,3.5,69,0.00,FEW,,0.00,WeatherDisplay:10.37,2013-01-14 23:39:00,
2013-01-14 18:44:00,29.8,20.9,30.26,NE,45,3.5,3.5,69,0.00,FEW,,0.00,WeatherDisplay:10.37,2013-01-14 23:44:00,
2013-01-14 18:52:00,29.5,20.6,30.26,NNE,22,4.6,4.6,69,0.00,FEW,,0.00,WeatherDisplay:10.37,2013-01-14 23:52:00,
2013-01-14 18:57:00,29.5,20.6,30.26,NE,45,2.3,2.3,69,0.00,FEW,,0.00,WeatherDisplay:10.37,2013-01-14 23:57:00,
2013-01-14 19:02:00,29.5,20.6,30.26,NE,45,3.5,3.5,69,0.00,FEW,,0.00,WeatherDisplay:10.37,2013-01-15 00:02:00,
2013-01-14 19:07:00,29.5,20.6,30.26,NE,45,3.6,3.6,69,0.00,FEW,,0.00,WeatherDisplay:10.37,2013-01-15 00:07:00,
2013-01-14 19:08:00,61.3,35.5,29.85,North,11,7.0,8.0,38,0.00,CL,CL,0.00,WeatherDisplay:10.37,2013-01-15 00:08:00,
2013-01-14 19:10:00,61.3,34.1,29.85,North,11,7.0,7.0,36,0.00,CL,CL,0.00,WeatherDisplay:10.37,2013-01-15 00:10:00,
2013-01-14 19:12:00,29.5,20.6,30.26,NE,45,6.9,6.9,69,0.00,FEW,,0.00,WeatherDisplay:10.37,2013-01-15 00:12:00,
2013-01-14 19:17:00,29.3,20.4,30.26,East,90,4.6,4.6,69,0.00,BKN,,0.00,WeatherDisplay:10.37,2013-01-15 00:17:00,
2013-01-14 19:22:00,29.3,20.4,30.26,NE,45,4.6,4.6,69,0.00,BKN,,0.00,WeatherDisplay:10.37,2013-01-15 00:22:00,
2013-01-14 19:27:00,29.1,20.2,30.26,NE,45,2.6,2.6,69,0.00,BKN,,0.00,WeatherDisplay:10.37,2013-01-15 00:27:00,
2013-01-14 19:32:00,29.1,20.2,30.26,NE,45,1.2,1.2,69,0.00,BKN,,0.00,WeatherDisplay:10.37,2013-01-15 00:32:00,
2013-01-14 19:37:00,29.1,20.2,30.23,NE,45,3.5,3.5,69,0.00,BKN,,0.00,WeatherDisplay:10.37,2013-01-15 00:37:00,
2013-01-14 19:42:00,29.1,20.2,30.23,NE,45,3.5,3.5,69,0.00,BKN,,0.00,WeatherDisplay:10.37,2013-01-15 00:42:00,
2013-01-14 19:47:00,28.9,20.0,30.23,NE,45,2.4,2.4,69,0.00,BKN,,0.00,WeatherDisplay:10.37,2013-01-15 00:47:00,
2013-01-14 19:52:00,28.9,20.0,30.23,NE,45,3.5,3.5,69,0.00,BKN,,0.00,WeatherDisplay:10.37,2013-01-15 00:52:00,
2013-01-14 19:57:00,28.6,19.7,30.23,NE,45,3.5,3.5,69,0.00,BKN,,0.00,WeatherDisplay:10.37,2013-01-15 00:57:00,
2013-01-14 20:02:00,28.4,19.5,30.23,NE,45,2.3,2.3,69,0.00,BKN,,0.00,WeatherDisplay:10.37,2013-01-15 01:02:00,
2013-01-14 20:04:00,59.9,32.9,29.85,NNE,12,3.0,3.0,36,0.00,CL,CL,0.00,WeatherDisplay:10.37,2013-01-15 01:04:00,
2013-01-14 20:07:00,28.2,19.3,30.23,NE,45,2.3,2.3,69,0.00,BKN,,0.00,WeatherDisplay:10.37,2013-01-15 01:07:00,
2013-01-14 20:10:00,59.7,32.7,29.85,NNE,12,3.0,6.0,36,0.00,CL,CL,0.00,WeatherDisplay:10.37,2013-01-15 01:10:00,
2013-01-14 20:12:00,28.0,19.2,30.23,NE,45,3.6,3.6,69,0.00,BKN,,0.00,WeatherDisplay:10.37,2013-01-15 01:12:00,
2013-01-14 20:17:00,27.9,20.0,30.23,NE,45,3.5,3.5,72,0.00,BKN,,0.00,WeatherDisplay:10.37,2013-01-15 01:17:00,
2013-01-14 20:22:00,27.9,20.0,30.23,NE,45,2.6,2.6,72,0.00,BKN,,0.00,WeatherDisplay:10.37,2013-01-15 01:22:00,
2013-01-14 20:27:00,27.7,19.8,30.23,NE,45,2.3,2.3,72,0.00,BKN,,0.00,WeatherDisplay:10.37,2013-01-15 01:27:00,
2013-01-14 20:32:00,27.5,19.7,30.23,NE,45,2.3,2.3,72,0.00,BKN,,0.00,WeatherDisplay:10.37,2013-01-15 01:32:00,
2013-01-14 20:37:00,27.3,19.5,30.23,NE,45,1.4,1.4,72,0.00,BKN,,0.00,WeatherDisplay:10.37,2013-01-15 01:37:00,
2013-01-14 20:42:00,27.3,19.5,30.23,NE,45,2.3,2.3,72,0.00,BKN,,0.00,WeatherDisplay:10.37,2013-01-15 01:42:00,
2013-01-14 20:47:00,27.1,19.3,30.23,NE,45,2.9,2.9,72,0.00,BKN,,0.00,WeatherDisplay:10.37,2013-01-15 01:47:00,
2013-01-14 20:52:00,27.0,19.1,30.26,East,90,3.5,3.5,72,0.00,BKN,,0.00,WeatherDisplay:10.37,2013-01-15 01:52:00,
2013-01-14 20:57:00,27.0,19.8,30.26,NE,45,2.3,2.3,74,0.00,BKN,,0.00,WeatherDisplay:10.37,2013-01-15 01:57:00,
2013-01-14 21:02:00,26.8,19.6,30.26,NE,45,1.2,1.2,74,0.00,CLR,,0.00,WeatherDisplay:10.37,2013-01-15 02:02:00,
2013-01-14 21:07:00,26.6,19.7,30.23,NE,45,1.2,0.0,75,0.00,CLR,,0.00,WeatherDisplay:10.37,2013-01-15 02:07:00,
2013-01-14 21:10:00,59.0,23.2,29.85,NNE,12,2.0,3.0,25,0.00,CL,CL,0.00,WeatherDisplay:10.37,2013-01-15 02:10:00,
2013-01-14 21:12:00,26.6,19.7,30.23,NE,45,1.2,1.2,75,0.00,CLR,,0.00,WeatherDisplay:10.37,2013-01-15 02:12:00,
2013-01-14 21:17:00,26.6,19.7,30.23,NE,45,1.2,0.0,75,0.00,CLR,,0.00,WeatherDisplay:10.37,2013-01-15 02:17:00,
2013-01-14 21:22:00,26.2,20.0,30.20,NE,45,0.0,0.0,77,0.00,CLR,,0.00,WeatherDisplay:10.37,2013-01-15 02:22:00,
2013-01-14 21:27:00,26.2,20.0,30.20,NE,45,0.0,0.0,77,0.00,CLR,,0.00,WeatherDisplay:10.37,2013-01-15 02:27:00,
2013-01-14 21:32:00,26.1,19.8,30.20,NE,45,0.0,0.0,77,0.00,CLR,,0.00,WeatherDisplay:10.37,2013-01-15 02:32:00,
2013-01-14 21:37:00,26.1,20.1,30.20,NE,45,1.6,1.6,78,0.00,CLR,,0.00,WeatherDisplay:10.37,2013-01-15 02:37:00,
2013-01-14 21:42:00,26.1,20.1,30.20,NE,45,1.6,0.0,78,0.00,CLR,,0.00,WeatherDisplay:10.37,2013-01-15 02:42:00,
2013-01-14 21:47:00,26.1,20.1,30.20,NE,45,2.3,2.3,78,0.00,CLR,,0.00,WeatherDisplay:10.37,2013-01-15 02:47:00,
2013-01-14 21:52:00,25.9,20.0,30.23,NE,45,1.2,0.0,78,0.00,CLR,,0.00,WeatherDisplay:10.37,2013-01-15 02:52:00,
2013-01-14 21:57:00,25.9,20.0,30.23,NE,45,1.6,1.6,78,0.00,CLR,,0.00,WeatherDisplay:10.37,2013-01-15 02:57:00,
2013-01-14 22:02:00,25.9,20.3,30.23,NE,45,2.3,2.3,79,0.00,CLR,,0.00,WeatherDisplay:10.37,2013-01-15 03:02:00,
2013-01-14 22:07:00,25.9,20.3,30.20,NE,45,1.2,1.2,79,0.00,CLR,,0.00,WeatherDisplay:10.37,2013-01-15 03:07:00,
2013-01-14 22:10:00,56.8,22.3,29.88,NNE,12,2.0,2.0,26,0.00,CL,CL,0.00,WeatherDisplay:10.37,2013-01-15 03:10:00,
2013-01-14 22:12:00,25.7,20.1,30.20,NNE,22,2.3,0.0,79,0.00,CLR,,0.00,WeatherDisplay:10.37,2013-01-15 03:12:00,
2013-01-14 22:17:00,25.7,20.1,30.20,North,0,2.3,2.3,79,0.00,CLR,,0.00,WeatherDisplay:10.37,2013-01-15 03:17:00,
2013-01-14 22:22:00,25.9,21.1,30.20,NNE,22,3.5,3.5,82,0.00,CLR,,0.00,WeatherDisplay:10.37,2013-01-15 03:22:00,
2013-01-14 22:27:00,25.9,21.1,30.20,North,0,1.2,1.4,82,0.00,CLR,,0.00,WeatherDisplay:10.37,2013-01-15 03:27:00,
2013-01-14 22:31:00,25.5,20.5,30.20,North,0,1.2,0.0,81,0.00,CLR,,0.00,WeatherDisplay:10.37,2013-01-15 03:31:00,
2013-01-14 22:36:00,25.5,20.5,30.20,North,0,2.3,2.3,81,0.00,CLR,,0.00,WeatherDisplay:10.37,2013-01-15 03:36:00,
2013-01-14 22:41:00,25.5,20.8,30.20,NNE,22,2.3,0.0,82,0.00,CLR,,0.00,WeatherDisplay:10.37,2013-01-15 03:41:00,
2013-01-14 22:46:00,25.5,21.1,30.20,NNE,22,2.3,2.3,83,0.00,CLR,,0.00,WeatherDisplay:10.37,2013-01-15 03:46:00,
2013-01-14 22:51:00,25.5,21.1,30.20,NNE,22,2.3,2.3,83,0.00,CLR,,0.00,WeatherDisplay:10.37,2013-01-15 03:51:00,
2013-01-14 22:56:00,25.5,21.1,30.20,NNE,22,2.3,2.3,83,0.00,CLR,,0.00,WeatherDisplay:10.37,2013-01-15 03:56:00,
2013-01-14 23:01:00,25.3,21.7,30.20,NE,45,2.3,0.0,86,0.00,CLR,,0.00,WeatherDisplay:10.37,2013-01-15 04:01:00,
2013-01-14 23:06:00,25.3,22.0,30.20,NNE,22,3.5,3.5,87,0.00,CLR,,0.00,WeatherDisplay:10.37,2013-01-15 04:06:00,
2013-01-14 23:10:00,53.6,18.6,29.85,North,11,1.0,1.0,25,0.00,CL,CL,0.00,WeatherDisplay:10.37,2013-01-15 04:10:00,
2013-01-14 23:11:00,25.3,22.0,30.20,NE,45,2.3,2.3,87,0.00,CLR,,0.00,WeatherDisplay:10.37,2013-01-15 04:11:00,
2013-01-14 23:16:00,25.3,22.0,30.20,North,0,2.3,2.3,87,0.00,CLR,,0.00,WeatherDisplay:10.37,2013-01-15 04:16:00,
2013-01-14 23:21:00,25.3,22.3,30.20,NE,45,2.4,2.4,88,0.00,CLR,,0.00,WeatherDisplay:10.37,2013-01-15 04:21:00,
2013-01-14 23:26:00,25.3,22.3,30.20,NNE,22,4.6,4.6,88,0.00,CLR,,0.00,WeatherDisplay:10.37,2013-01-15 04:26:00,
2013-01-14 23:31:00,25.3,22.3,30.20,NNE,22,4.3,4.3,88,0.00,CLR,,0.00,WeatherDisplay:10.37,2013-01-15 04:31:00,
2013-01-14 23:37:00,25.3,22.3,30.20,NE,45,2.3,2.3,88,0.00,CLR,,0.00,WeatherDisplay:10.37,2013-01-15 04:37:00,
2013-01-14 23:44:00,25.2,21.8,30.20,NNW,338,3.6,3.6,87,0.00,CLR,,0.00,WeatherDisplay:10.37,2013-01-15 04:44:00,
2013-01-14 23:49:00,25.2,21.8,30.20,North,0,3.5,3.5,87,0.00,CLR,,0.00,WeatherDisplay:10.37,2013-01-15 04:49:00,
2013-01-14 23:54:00,25.2,22.1,30.20,NNE,22,4.9,4.9,88,0.00,CLR,,0.00,WeatherDisplay:10.37,2013-01-15 04:54:00,
2013-01-14 23:59:00,25.2,22.1,30.20,North,0,2.3,2.3,88,0.00,CLR,,0.00,WeatherDisplay:10.37,2013-01-15 04:59:00,